Wind_Speed
7 6 6 6 5 5 4 4 4 3 3 2 1 1 1 2 3 3 3 4 4 4 5 5 5 6 7 7 7 7 8 8 8 9 8 8 9 9 8 9 10 10 10
7 7 6 5 5 4 4 3 3 3 2 2 2 1 2 3 3 3 4 4 4 5 6 7 7 8 8 8 7 7 8 9 9 9 9 9 10 11 11 11 12 11 12
6 6 5 5 4 4 3 3 2 2 2 2 3 3 3 3 4 4 4 5 5 5 6 6 7 8 9 9 8 9 9 10 11 11 11 11 11 12 12 12 12 12 12
5 4 4 3 3 3 3 2 2 2 2 3 3 3 3 4 4 5 5 5 6 6 6 6 7 8 9 9 9 10 11 12 12 12 12 13 13 13 12 12 13 13 14
4 3 3 3 2 2 2 2 2 3 3 3 4 4 4 4 5 5 5 5 6 7 8 8 8 8 9 10 11 11 13 13 13 13 14 14 14 14 14 14 14 14 14
4 3 3 2 2 3 3 3 3 3 4 4 4 5 5 5 5 5 6 5 6 7 9 9 9 9 10 11 12 12 13 14 14 15 15 15 15 15 16 16 16 16 17
5 4 4 4 3 4 4 3 3 4 4 4 5 5 6 6 5 6 7 6 7 8 9 9 9 10 11 12 12 12 13 14 15 15 16 16 16 16 16 16 17 17 18
4 4 5 5 5 4 5 4 4 4 5 5 5 6 6 7 6 7 7 7 8 9 9 9 10 11 12 12 13 13 14 14 15 15 16 16 17 17 17 17 17 18 18
4 4 6 6 6 6 6 6 5 5 6 6 6 7 7 8 8 7 8 8 8 9 10 11 12 12 13 13 14 15 15 16 16 16 16 17 17 17 18 18 18 18 18
6 5 6 7 7 7 7 7 7 6 7 7 7 8 8 9 9 9 9 9 9 9 10 11 11 12 13 14 15 15 16 16 17 18 18 19 19 19 19 20 21 20 19
6 6 7 7 8 8 8 8 8 8 8 8 9 9 10 10 10 10 9 9 10 10 11 11 11 12 13 14 15 16 17 17 18 18 19 19 20 21 21 21 21 20 20
7 6 7 8 8 8 8 8 9 9 9 9 10 10 10 10 11 10 10 10 11 12 12 12 12 13 14 15 15 16 17 18 18 19 20 21 21 21 21 21 21 21 21
7 7 8 8 8 8 9 9 10 10 10 10 10 10 10 11 11 11 11 11 12 12 13 13 14 15 15 15 16 16 17 17 17 18 19 20 20 21 21 21 22 22 22
7 8 9 9 9 9 9 10 10 10 11 11 12 11 11 12 12 12 12 13 13 13 14 15 16 16 17 17 17 17 17 17 18 19 19 20 20 20 21 22 22 22 23
8 9 9 10 10 10 10 10 10 11 11 11 12 12 12 13 13 13 14 14 14 15 15 16 17 18 18 18 18 18 17 17 18 19 20 21 21 21 22 23 23 23 23
9 10 10 10 10 10 10 11 11 11 11 12 13 13 13 14 14 14 15 15 15 16 16 17 17 18 18 18 18 18 19 19 19 20 21 21 21 21 22 22 23 24 24
10 10 10 11 11 10 10 11 11 11 12 12 13 13 14 14 15 14 14 14 15 16 16 16 17 18 19 19 19 19 19 20 20 20 20 21 21 22 22 22 22 23 24
10 11 11 11 11 11 11 11 12 12 13 13 13 13 14 15 14 14 15 15 15 16 16 17 18 18 18 19 19 20 20 20 21 21 21 22 22 22 22 22 23 24 25
11 11 12 12 12 12 12 12 13 13 13 14 14 14 14 15 15 15 15 16 16 17 17 18 18 18 18 19 20 20 21 21 21 21 21 21 22 22 23 23 25 25 26
12 12 12 13 13 13 13 13 14 14 15 15 15 15 15 15 15 15 16 16 17 17 18 19 19 19 19 19 20 21 22 21 22 21 21 21 22 22 23 24 25 26 27
13 13 13 13 14 14 14 14 15 15 15 15 15 15 15 16 16 17 17 17 18 18 19 20 20 20 20 20 21 21 22 22 22 23 23 22 23 23 25 26 27 28 29
14 15 14 15 15 15 15 16 16 16 16 16 16 16 16 16 17 17 18 18 19 19 20 21 21 21 21 21 21 22 22 23 22 23 23 24 24 25 26 27 28 28 29
16 16 16 16 16 17 17 17 17 17 17 17 17 17 17 17 17 18 18 19 19 20 20 21 21 22 22 21 22 22 23 24 24 24 24 25 25 26 27 28 28 29 29
17 17 17 17 17 18 18 18 18 18 18 18 18 19 19 19 18 18 19 19 19 20 20 21 22 22 22 22 23 23 24 24 25 25 26 26 26 26 27 28 29 30 31
18 18 18 18 18 19 19 19 20 20 20 20 20 21 21 21 20 21 21 21 21 22 22 23 23 23 24 24 24 24 25 25 26 26 27 27 27 28 28 29 30 31 32
19 20 20 20 20 20 20 20 21 21 22 22 22 22 22 22 22 23 23 24 24 24 24 24 24 24 25 25 25 26 26 27 27 28 28 28 29 29 30 30 31 32 32
Wind_Direction
84 82 79 74 73 78 86 82 71 69 48 33 19 263 265 279 285 281 277 278 277 276 269 265 264 258 258 253 252 253 250 247 247 246 250 255 259 264 264 261 260 261 263
77 77 73 73 70 63 60 61 53 57 45 23 5 339 294 292 289 282 277 274 277 274 269 274 269 263 260 254 249 251 254 253 258 254 255 259 262 265 266 266 263 261 263
64 69 66 62 60 55 48 40 37 35 20 1 357 354 332 305 293 287 283 273 274 269 266 269 268 266 265 259 257 261 263 261 262 259 259 262 265 266 267 268 267 265 265
61 61 57 52 49 45 32 21 10 3 357 349 339 335 331 317 301 290 288 284 277 272 267 268 270 271 270 269 272 273 275 272 267 265 264 263 265 266 267 268 268 267 268
53 53 45 35 26 15 359 346 334 335 340 336 332 329 326 320 311 304 301 294 276 273 271 271 274 276 276 275 274 273 275 273 268 268 265 266 266 268 269 269 270 270 271
30 36 31 11 356 348 340 338 333 331 326 328 334 333 326 317 312 313 306 298 287 281 279 278 278 279 280 280 276 274 273 270 268 267 267 268 268 269 271 270 270 269 270
18 23 20 8 355 347 341 338 336 330 336 340 332 329 328 323 313 306 304 297 296 293 287 287 285 283 283 286 284 280 276 273 271 270 270 268 268 271 272 271 271 271 270
13 15 9 1 358 358 357 352 340 335 338 337 328 324 328 325 318 308 306 297 293 293 289 287 286 286 282 283 284 282 280 279 278 275 272 271 270 271 270 272 273 271 270
23 22 16 8 359 350 342 342 332 325 326 325 322 319 321 321 320 316 314 307 299 298 293 290 289 288 287 286 285 282 278 277 276 275 276 276 275 275 274 274 274 275 273
23 16 8 5 359 349 340 338 337 328 322 321 323 322 319 316 315 314 313 312 310 308 302 299 299 296 293 291 289 286 282 280 278 276 276 277 276 276 276 274 274 273 273
11 3 354 348 348 342 337 334 337 332 327 324 325 323 319 315 311 311 316 314 312 310 306 301 299 297 295 296 293 289 286 283 282 279 276 277 277 277 277 276 275 273 274
1 354 350 347 340 336 332 331 330 326 323 319 318 318 318 316 313 313 314 315 314 312 308 304 298 297 297 297 294 292 288 284 282 280 278 278 277 276 276 275 274 274 275
355 352 349 349 344 342 335 331 329 325 322 321 318 317 319 318 312 309 309 309 310 311 309 307 303 300 300 300 298 295 292 289 286 284 282 281 283 279 277 277 277 275 275
350 350 351 344 340 340 335 332 329 324 321 321 319 316 316 317 313 307 305 304 305 306 306 306 307 304 302 301 300 297 295 291 288 286 284 283 284 284 280 280 280 278 275
343 343 343 340 339 336 333 331 330 326 324 321 320 317 318 316 315 310 305 304 303 304 304 306 307 308 305 304 302 300 298 294 292 291 288 286 285 285 284 283 280 279 278
339 335 337 339 336 335 335 332 330 328 324 321 317 314 315 317 316 312 309 305 304 303 304 306 308 308 306 304 303 301 300 297 295 294 291 290 288 288 287 284 283 282 281
338 336 336 337 338 338 337 336 333 330 328 324 318 314 314 314 314 314 315 313 311 308 305 308 310 310 309 306 306 304 300 300 298 297 296 293 291 290 289 288 287 286 285
336 335 335 335 337 336 337 337 334 332 329 327 323 318 315 314 313 313 313 314 312 311 309 309 310 310 310 312 311 310 306 303 300 298 297 295 293 292 290 289 288 287 285
330 330 329 329 330 331 332 330 330 330 328 329 328 325 322 319 315 313 312 312 309 308 308 310 312 313 312 312 309 309 310 308 306 303 300 298 297 293 291 292 291 289 287
326 326 325 324 324 326 328 327 327 327 327 326 325 323 322 321 318 315 314 313 310 310 310 311 313 312 312 311 308 308 309 308 308 306 303 300 298 293 291 291 292 292 290
319 319 320 320 319 320 321 323 325 325 325 324 322 320 319 319 318 316 314 312 310 310 311 311 311 311 311 310 310 310 311 310 308 308 306 304 301 297 294 294 294 295 293
313 314 314 316 315 315 316 319 320 320 320 321 319 317 316 314 314 314 313 311 310 310 311 311 309 311 310 310 309 309 309 309 309 307 305 304 302 300 299 298 297 297 295
306 308 309 312 313 313 314 315 315 317 318 318 317 316 314 313 311 312 312 312 311 311 312 312 311 311 311 311 309 308 307 307 307 306 305 305 304 302 302 301 300 300 298
301 304 307 311 313 312 311 310 313 315 315 315 315 313 312 312 310 310 311 311 310 310 310 311 311 311 312 311 310 309 308 307 306 306 305 304 303 302 302 302 301 300 298
294 297 301 305 309 310 310 309 310 312 312 312 313 311 310 309 308 308 308 308 308 308 307 308 309 309 310 309 309 309 308 307 307 306 305 305 304 303 303 303 301 299 298
291 294 298 301 303 305 305 306 307 308 309 308 309 309 309 307 306 305 307 307 307 307 307 308 308 308 308 307 307 307 307 307 307 306 306 305 305 305 305 304 304 302 300
Height
5887 5887 5887 5887 5887 5887 5887 5887 5887 5887 5887 5887 5886 5886 5886 5886 5886 5886 5886 5886 5887 5887 5887 5887 5887 5887 5886 5886 5886 5886 5887 5887 5887 5888 5888 5888 5889 5889 5889 5889 5889 5890 5890
5888 5888 5888 5888 5888 5888 5887 5887 5887 5887 5887 5887 5887 5886 5886 5886 5886 5886 5885 5886 5886 5885 5885 5885 5885 5885 5885 5884 5885 5885 5885 5885 5886 5886 5886 5887 5887 5887 5887 5887 5887 5887 5887
5889 5889 5889 5889 5889 5888 5888 5888 5888 5887 5887 5887 5886 5885 5885 5885 5884 5884 5884 5884 5884 5884 5884 5884 5884 5883 5883 5882 5883 5883 5883 5883 5884 5884 5884 5884 5885 5885 5885 5884 5884 5885 5885
5890 5889 5889 5889 5889 5889 5889 5888 5888 5888 5887 5886 5886 5885 5884 5884 5884 5883 5883 5883 5882 5882 5882 5882 5882 5881 5881 5881 5881 5881 5881 5881 5881 5882 5882 5882 5881 5882 5882 5882 5881 5881 5881
5890 5890 5890 5889 5889 5889 5889 5888 5888 5888 5887 5886 5886 5885 5884 5883 5883 5882 5882 5881 5881 5881 5881 5881 5881 5880 5880 5879 5879 5879 5879 5878 5878 5879 5879 5878 5878 5879 5879 5878 5878 5878 5878
5891 5890 5890 5890 5889 5889 5889 5888 5888 5887 5886 5886 5885 5884 5883 5883 5882 5881 5881 5880 5880 5880 5879 5879 5879 5879 5878 5878 5877 5877 5876 5875 5876 5876 5876 5875 5875 5875 5875 5875 5875 5875 5875
5891 5890 5890 5890 5889 5888 5888 5887 5887 5886 5886 5885 5884 5884 5883 5882 5881 5881 5880 5879 5879 5878 5878 5877 5877 5877 5876 5875 5875 5874 5873 5873 5872 5872 5872 5872 5872 5872 5871 5871 5871 5871 5870
5891 5890 5890 5890 5889 5888 5887 5887 5886 5886 5885 5885 5884 5883 5882 5882 5880 5880 5879 5878 5877 5877 5876 5875 5875 5874 5874 5873 5872 5871 5870 5870 5869 5869 5868 5868 5868 5868 5867 5867 5867 5866 5866
5891 5891 5890 5890 5889 5888 5887 5886 5886 5885 5884 5884 5883 5882 5881 5880 5879 5879 5878 5877 5876 5875 5874 5873 5873 5872 5871 5870 5869 5868 5867 5866 5866 5865 5865 5864 5864 5863 5863 5862 5862 5861 5861
5892 5891 5891 5890 5889 5888 5887 5886 5885 5884 5883 5882 5881 5880 5880 5879 5878 5877 5876 5875 5874 5873 5872 5871 5870 5869 5868 5867 5866 5865 5864 5863 5862 5862 5861 5860 5860 5859 5858 5858 5857 5856 5856
5893 5892 5891 5889 5888 5887 5886 5885 5884 5883 5882 5881 5880 5879 5878 5877 5876 5875 5874 5873 5872 5871 5870 5869 5868 5866 5865 5864 5862 5861 5860 5859 5858 5857 5856 5856 5855 5854 5853 5853 5852 5851 5851
5893 5891 5890 5889 5888 5887 5885 5884 5883 5882 5881 5880 5879 5877 5876 5875 5874 5873 5872 5871 5870 5869 5868 5867 5865 5864 5862 5861 5859 5857 5856 5854 5853 5853 5852 5851 5850 5849 5848 5847 5847 5846 5846
5893 5891 5890 5889 5887 5886 5884 5883 5882 5880 5879 5878 5877 5876 5874 5873 5872 5871 5870 5869 5868 5867 5865 5864 5862 5860 5859 5857 5855 5854 5852 5850 5849 5848 5847 5846 5845 5844 5843 5842 5842 5841 5840
5893 5891 5890 5888 5887 5885 5883 5882 5880 5878 5877 5876 5875 5874 5872 5871 5870 5868 5868 5866 5865 5864 5862 5861 5859 5857 5855 5853 5851 5849 5847 5846 5845 5843 5842 5841 5840 5839 5838 5837 5836 5835 5834
5892 5890 5889 5887 5885 5883 5882 5880 5878 5877 5875 5874 5872 5871 5870 5868 5867 5866 5864 5863 5862 5861 5859 5857 5855 5853 5851 5849 5847 5845 5843 5842 5840 5839 5837 5836 5834 5833 5832 5831 5830 5829 5828
5891 5889 5887 5885 5883 5882 5880 5878 5876 5875 5873 5871 5870 5868 5867 5866 5864 5863 5861 5860 5858 5857 5855 5853 5851 5849 5847 5845 5843 5841 5839 5837 5835 5834 5832 5830 5829 5828 5826 5825 5824 5822 5821
5890 5888 5886 5884 5882 5880 5878 5876 5874 5873 5871 5869 5867 5865 5864 5863 5861 5859 5858 5856 5855 5853 5851 5849 5847 5845 5843 5841 5838 5836 5834 5832 5830 5828 5827 5825 5823 5822 5820 5819 5817 5816 5815
5888 5887 5885 5883 5880 5878 5876 5874 5872 5870 5868 5866 5864 5863 5861 5860 5858 5857 5855 5853 5852 5850 5848 5846 5843 5841 5839 5837 5834 5832 5830 5827 5825 5823 5821 5819 5818 5816 5814 5813 5811 5810 5808
5887 5885 5883 5881 5879 5876 5874 5872 5870 5868 5866 5864 5862 5860 5859 5857 5856 5854 5852 5850 5848 5847 5845 5842 5840 5838 5835 5833 5830 5828 5825 5823 5820 5818 5816 5814 5812 5810 5808 5807 5805 5803 5801
5885 5883 5881 5879 5876 5874 5872 5870 5868 5866 5864 5862 5860 5858 5856 5854 5853 5851 5849 5847 5845 5843 5841 5838 5836 5834 5831 5829 5826 5824 5821 5818 5816 5813 5811 5809 5806 5804 5802 5801 5799 5796 5794
5883 5881 5879 5876 5874 5872 5870 5868 5866 5864 5862 5860 5858 5856 5854 5852 5850 5848 5846 5844 5842 5840 5837 5835 5832 5830 5827 5825 5822 5819 5817 5814 5811 5809 5806 5803 5801 5799 5796 5794 5792 5790 5787
5880 5878 5876 5874 5872 5870 5867 5865 5863 5861 5859 5857 5855 5853 5851 5849 5847 5845 5842 5840 5838 5836 5833 5831 5828 5826 5823 5820 5818 5815 5812 5809 5806 5804 5801 5798 5795 5792 5790 5788 5785 5782 5780
5877 5875 5873 5871 5869 5867 5865 5862 5860 5858 5856 5854 5852 5850 5848 5846 5844 5841 5839 5836 5834 5832 5829 5827 5824 5821 5818 5816 5813 5810 5807 5804 5802 5798 5795 5792 5789 5786 5783 5780 5777 5775 5772
5873 5871 5869 5867 5865 5863 5861 5859 5857 5855 5853 5851 5849 5847 5845 5843 5840 5838 5835 5833 5830 5827 5825 5822 5820 5817 5814 5811 5808 5805 5802 5799 5796 5792 5789 5787 5784 5780 5777 5773 5770 5767 5764
5868 5867 5865 5863 5861 5860 5858 5855 5853 5851 5849 5847 5845 5843 5841 5839 5836 5834 5831 5829 5826 5823 5820 5817 5814 5811 5808 5805 5802 5799 5796 5793 5789 5786 5783 5780 5777 5773 5770 5766 5763 5759 5756
5864 5862 5860 5859 5857 5855 5853 5851 5849 5847 5844 5842 5841 5838 5836 5834 5831 5829 5827 5824 5821 5818 5815 5812 5809 5806 5803 5799 5796 5793 5790 5787 5783 5780 5776 5773 5769 5766 5762 5758 5754 5751 5747